Reflectivity
-6 -3 -20 -20 -20 -20 -20 -20 -20 -20 -15 -20 -20 -20 -18 -20 -20 -19 -11 -9 -9 -20 2 11 -20 -5 -15 -11 -16 -20 -8 17 18 -14 -20 -20 16 -6 12 28 18 8 25
-2 23 -4 -20 -20 -20 -20 -20 -20 -20 -20 -20 -20 -20 -20 -20 -15 -2 -2 -18 0 -16 -20 -14 -20 13 11 12 -2 -18 -5 -15 12 -20 20 3 -20 -20 -12 12 10 13 -20
-3 -19 -20 -20 -20 -20 -20 -20 -20 -20 -20 -20 -20 -20 -3 1 -11 4 -10 -20 -20 -6 3 10 10 14 3 15 18 3 15 5 16 21 -20 -20 -20 -20 -12 -15 -6 -11 -9
-20 -17 -20 -20 -20 -20 -20 -20 -20 -20 -20 -20 -20 -20 -20 -15 -15 -18 6 -15 -16 -16 -19 -6 11 15 10 12 24 11 -18 16 18 2 -20 -20 -20 -20 -20 -20 -20 -20 -20
22 23 18 -3 -20 -20 -20 -20 -20 -20 -20 -20 -20 -20 -20 -20 -20 -20 -20 -17 -13 -18 -20 -20 -20 -20 -20 -18 -10 -0 7 14 12 -11 -14 -7 -20 1 13 -20 -6 -20 -20
6 16 26 23 -19 -20 -20 -20 -20 -20 -20 -20 -20 -20 -20 -20 -20 -20 -20 -20 -20 -7 -20 -20 -20 -20 -20 -20 -20 -20 -18 -20 -20 -20 -20 -20 -20 -2 -20 -20 -20 -20 -2
1 9 22 30 24 25 3 -17 -14 -20 -20 -20 -20 -20 -20 -20 -11 -19 -19 -20 -20 -20 -20 -20 -20 -20 -20 -20 -20 -20 -20 -20 -20 -20 -20 -20 -20 -20 -20 -20 -20 -3 -8
19 26 22 14 -1 5 1 1 7 12 11 4 -20 -12 -17 4 7 -19 -13 -18 -5 7 -2 -0 -1 9 -7 -14 -20 -20 -20 -17 -10 -0 0 18 26 23 13 12 20 18 10
35 37 4 -20 -17 3 7 3 17 3 6 9 14 5 18 15 19 11 6 3 -9 18 24 16 17 4 20 26 20 15 16 28 28 32 40 41 38 34 23 9 20 33 31
28 19 -1 -20 -20 -20 -20 -20 -20 1 16 11 17 21 29 13 23 9 9 11 7 8 6 -4 23 7 -7 6 7 8 -0 8 18 8 20 30 14 25 30 31 35 39 29
13 -12 -17 -20 -20 -20 -20 -20 -20 -20 -17 -20 -4 -2 15 13 15 13 -15 -19 12 9 1 8 10 32 28 17 18 14 14 36 21 35 19 26 30 37 31 27 14 23 30
5 -20 -20 -20 -20 -20 -20 -20 -20 -20 -20 -20 1 -5 -20 -20 -12 3 -12 -16 -11 -3 5 12 21 25 17 15 11 26 25 28 8 15 16 12 15 19 15 8 -1 -1 10
15 -14 -5 1 -5 -20 -18 -4 -5 -13 -20 -20 -20 -20 -20 -20 -19 -20 -20 -10 -20 -20 -6 -14 -20 -19 -18 -20 -17 2 7 -18 -20 -19 -19 -1 7 2 -8 -6 -20 -12 -7
9 8 -8 -20 -20 -20 -20 -20 -20 -20 -17 -20 -16 -5 -5 -19 -18 -20 -20 -4 -20 -20 -20 -20 -20 -20 -20 -20 -20 -19 -20 -20 -20 -20 -19 -18 -20 -20 -19 -13 -20 -20 -20
-14 -4 -8 -16 -20 -20 -20 -12 -12 -16 -3 -3 -1 -5 -4 -1 3 -12 -20 -20 -20 -20 -20 -20 -20 -20 -20 -20 -20 -20 -20 -20 -9 -3 -20 -20 -20 -20 -20 -20 -20 -20 -20
-20 -20 -9 -20 -20 -20 -20 -19 -16 -14 -14 -10 -20 -6 4 -0 -4 -20 -20 -20 -20 -20 -20 -20 -20 -20 -20 -20 -20 -20 -20 -20 -20 -20 -20 -20 -20 -20 -20 -20 -20 -20 -20
-20 -20 -20 -20 -20 -20 -20 -20 -20 -20 -20 -19 -2 4 -1 5 -20 -20 -20 -20 -20 -20 -20 -20 -20 -15 -20 -20 -20 -20 -20 -20 -20 -20 -20 -20 -20 -20 -20 -20 -20 -20 -20
-20 -20 -20 -20 -20 -20 -20 -20 -20 -20 -20 -20 -20 -3 -0 -9 -20 -20 -20 -20 -20 -20 -20 -20 -20 -20 -20 -20 -20 -20 -20 -20 -20 -20 -20 -20 -20 -20 -20 -20 -20 -20 -20
-20 -20 -20 -20 -20 -20 -20 -20 -20 -20 -20 -20 -20 -20 -20 -6 -20 -20 -20 -20 -20 -20 -20 -20 -20 -20 -20 -20 -20 -20 -20 -11 -13 -15 -20 -16 -20 -20 -20 -20 -20 -20 -20
-20 -20 -20 -20 -20 -20 -20 -20 -20 -20 -20 -20 -20 -20 -20 -20 -20 -20 -20 -20 -20 -20 -20 -20 -20 -20 -20 -20 -20 -20 -19 -19 -20 -17 -20 -20 -20 -20 -20 -20 -20 -20 -20
-20 -20 -20 -20 -20 -20 -20 -20 -20 -20 -20 -20 -20 -20 -20 -20 -20 -20 -20 -20 -20 -20 -20 -20 -20 -20 -20 -20 -20 -20 -20 -20 -20 -20 -20 -20 -20 -20 -20 -20 -20 -20 -20
-20 -20 -20 -20 -20 -20 -20 -20 -20 -20 -20 -20 -20 -20 -20 -20 -20 -20 -20 -20 -20 -20 -20 -20 -20 -20 -20 -20 -20 -20 -20 -20 -20 -20 -20 -20 -20 -20 -20 -20 -20 -20 -20
-20 -20 -20 -20 -20 -20 -20 -20 -20 -20 -20 -20 -20 -20 -20 -20 -20 -20 -20 -20 -20 -20 -20 -20 -20 -20 -20 -20 -20 -20 -20 -20 -20 -20 -20 -20 -20 -20 -20 -20 -20 -20 -20
-20 -20 -20 -20 -20 -20 -20 -20 -20 -20 -20 -20 -20 -20 -20 -20 -20 -20 -20 -20 -20 -20 -20 -20 -20 -20 -20 -20 -20 -20 -20 -20 -20 -20 -20 -20 -20 -20 -20 -20 -20 -20 -20
-20 -20 -20 -20 -20 -20 -20 -20 -20 -20 -20 -20 -20 -20 -20 -20 -20 -20 -20 -20 -20 -20 -20 -20 -20 -20 -20 -20 -20 -20 -20 -20 -20 -20 -20 -20 -20 -20 -20 -20 -20 -20 -20
-20 -20 -20 -20 -20 -20 -20 -20 -20 -20 -20 -20 -20 -20 -20 -20 -20 -20 -20 -20 -20 -20 -20 -20 -20 -20 -20 -14 -20 -20 -20 -20 -20 -20 -20 -20 -20 -20 -20 -20 -20 -20 -20
Wind_Speed
13 12 13 12 11 10 9 10 10 7 8 8 8 10 11 11 9 10 10 12 13 13 12 13 13 10 6 6 7 7 8 11 13 10 8 8 7 8 9 11 10 9 9
11 12 11 11 11 11 10 11 11 11 8 9 9 8 9 10 11 12 9 10 14 14 13 10 10 5 8 8 7 10 11 12 12 16 12 9 11 11 13 11 9 9 10
12 11 10 10 10 11 10 11 12 12 12 11 11 9 8 9 10 10 11 10 11 11 10 10 12 11 10 6 7 9 8 8 7 10 12 10 9 7 10 10 11 12 10
10 11 11 10 10 10 9 10 11 12 13 13 13 13 14 13 11 10 10 10 10 11 13 15 14 13 13 12 11 12 9 8 9 12 12 12 11 12 11 12 12 12 13
9 9 8 8 7 8 9 10 10 11 11 12 12 12 12 12 11 14 13 12 12 13 15 16 17 18 19 17 12 13 11 11 11 11 12 11 13 11 14 13 13 13 14
5 4 3 6 6 7 7 9 8 10 11 11 12 13 13 11 13 15 15 15 16 17 16 17 18 16 17 18 21 20 16 15 16 13 13 15 18 14 14 13 13 13 15
13 13 11 11 9 7 4 7 8 10 9 11 11 11 13 13 13 17 18 15 14 15 16 15 15 13 15 19 20 21 20 21 20 20 20 18 19 17 17 16 17 16 16
15 14 13 11 10 10 10 9 9 7 5 8 9 10 11 7 16 9 15 15 12 13 13 15 15 17 16 16 16 17 16 15 16 13 19 19 14 6 6 7 10 13 3
16 13 11 12 12 11 10 9 8 6 8 10 11 12 11 11 16 13 5 8 11 13 11 6 7 7 8 9 10 14 14 9 12 15 19 15 15 17 9 3 8 8 7
13 12 12 12 12 11 10 9 8 9 10 9 12 13 14 11 18 16 8 1 4 2 9 10 15 9 8 3 4 6 8 4 8 8 7 13 15 15 21 11 4 5 1
10 9 11 12 12 11 10 10 10 10 10 10 11 10 12 14 15 22 19 7 5 8 8 9 10 19 21 19 15 4 2 10 13 12 9 10 10 12 11 12 13 10 7
9 12 13 13 11 10 12 11 11 10 11 10 9 9 8 10 21 23 25 23 17 11 10 8 11 25 27 25 18 24 23 14 10 11 9 10 9 10 9 11 13 13 12
11 13 13 13 12 13 13 12 9 11 9 9 9 9 8 8 8 19 24 23 21 14 10 16 20 20 22 20 26 23 16 10 10 10 10 8 7 7 7 9 11 13 14
9 10 11 13 13 13 10 10 9 8 8 9 9 9 8 8 8 8 8 9 15 12 13 12 14 16 18 15 14 15 11 10 9 9 8 8 7 8 9 7 6 6 8
8 8 9 9 11 13 15 11 11 14 12 9 8 8 8 9 10 14 11 8 8 11 11 10 11 11 12 12 12 12 11 10 10 8 8 7 7 7 7 6 6 7 8
8 8 7 7 7 8 9 12 25 22 24 22 20 12 11 17 18 19 19 20 18 14 12 11 11 11 11 10 10 10 10 11 9 8 7 7 7 6 7 7 7 7 7
8 7 6 7 7 7 7 7 7 12 23 25 22 19 17 15 18 20 21 23 19 15 12 10 10 9 9 9 9 9 9 8 8 7 7 7 6 6 6 6 6 6 7
9 12 7 7 7 7 7 7 6 7 7 8 16 16 18 18 16 15 13 13 11 13 10 9 9 8 8 8 8 8 7 7 7 7 7 7 6 6 6 7 6 6 6
8 7 7 7 7 7 7 7 7 7 7 7 6 9 12 17 19 21 18 10 10 9 9 9 8 8 7 7 7 7 8 7 7 6 6 6 6 6 6 6 6 8 6
8 10 8 6 6 7 6 7 7 8 8 8 8 8 7 6 10 11 11 10 9 8 8 8 7 7 7 7 6 6 6 7 6 6 6 5 5 5 5 5 5 5 5
6 7 9 7 7 7 7 7 7 7 8 8 8 9 10 8 8 9 8 9 8 8 8 7 7 7 6 7 6 6 7 6 6 5 5 4 4 4 4 4 4 4 5
6 6 7 7 6 7 7 6 6 7 7 6 6 8 10 8 8 8 8 7 7 7 6 6 6 6 6 6 6 6 6 5 5 4 4 3 3 4 3 3 4 4 4
6 6 6 6 6 7 6 6 6 6 7 6 6 6 7 7 7 7 7 6 6 6 6 6 6 6 6 6 6 5 5 5 4 3 3 2 2 3 3 3 4 4 4
6 6 7 6 6 6 6 6 7 8 7 6 6 6 6 6 6 6 5 5 5 6 6 6 6 7 5 5 5 5 5 4 4 3 4 3 2 1 2 2 3 4 3
6 6 7 6 6 5 6 6 6 6 5 5 5 5 5 4 5 4 4 4 4 5 5 4 4 5 6 6 6 6 5 5 4 3 2 2 2 2 2 2 3 3 4
7 7 6 5 5 5 5 5 5 5 5 5 4 4 4 4 3 3 3 4 3 3 3 3 4 5 3 3 3 5 5 5 4 3 3 1 1 1 1 2 2 3 3
Wind_Direction
155 161 174 170 168 170 178 183 187 168 163 167 165 171 174 178 168 176 185 185 193 196 204 216 218 218 216 214 227 231 233 231 251 249 240 224 205 211 210 217 221 218 231
148 157 176 165 166 171 182 182 185 189 176 184 180 177 173 177 186 187 175 191 200 203 209 213 215 204 229 222 221 226 235 235 243 254 247 233 227 217 235 227 224 235 246
145 155 161 169 174 183 186 185 186 189 193 191 189 182 182 183 189 191 191 184 189 198 198 203 220 219 220 212 218 223 220 233 237 250 252 246 241 231 234 238 240 242 236
149 154 163 176 186 195 195 191 191 194 194 197 199 200 197 194 193 195 200 206 213 217 217 216 218 215 221 219 226 229 226 230 232 240 252 254 250 242 238 252 246 232 248
157 161 163 175 181 186 200 202 198 198 203 205 203 209 211 211 210 205 200 202 208 218 225 232 231 229 221 219 219 226 225 232 238 246 251 256 255 248 241 246 250 257 255
128 122 129 176 181 187 200 210 206 211 214 212 212 210 210 214 201 198 210 214 216 225 235 237 237 225 226 218 222 229 226 223 235 243 248 246 251 254 254 253 255 256 261
44 42 40 39 53 20 230 198 210 224 223 222 226 225 229 228 203 204 209 228 231 232 235 237 236 235 227 233 227 232 233 236 237 248 248 243 249 248 253 253 250 249 250
40 32 30 27 39 34 39 37 33 4 249 225 224 220 233 49 12 279 220 220 229 237 238 241 241 246 242 236 242 245 238 241 245 247 258 266 286 339 311 286 278 273 302
42 13 22 34 34 34 38 30 22 26 26 55 34 41 78 48 17 11 348 227 242 244 248 287 340 301 342 336 258 251 250 250 64 71 76 56 42 33 25 353 281 278 268
33 19 22 34 36 35 30 30 37 57 64 69 59 51 48 44 21 14 4 308 234 52 60 42 22 1 335 332 215 237 255 233 122 94 77 56 46 36 28 21 352 257 204
47 45 43 41 44 34 35 38 45 61 73 70 69 56 50 37 33 36 31 44 84 81 67 52 40 44 48 45 36 356 52 105 99 88 74 70 53 47 41 38 38 35 47
48 51 46 48 48 46 44 43 47 57 61 61 64 58 45 43 44 47 55 62 69 77 69 61 59 55 56 55 58 62 66 70 72 76 63 57 53 67 55 60 55 56 52
49 51 48 49 50 47 46 47 48 49 55 54 55 56 48 48 49 52 61 65 70 78 75 75 69 63 59 57 59 60 62 65 73 76 73 69 58 64 81 76 73 72 63
64 62 60 53 56 55 55 48 49 49 54 59 58 58 53 49 49 52 60 72 73 78 78 70 71 70 66 61 58 56 55 60 70 78 80 78 71 61 56 49 51 82 69
73 74 76 72 67 66 55 45 54 49 50 63 59 60 60 58 56 61 68 73 81 82 85 72 66 62 61 59 57 53 56 57 62 64 67 66 65 63 56 49 55 61 72
60 63 64 75 75 79 79 71 55 61 62 65 63 63 65 72 74 75 76 78 76 76 75 72 70 68 68 67 64 60 51 50 48 52 55 53 52 53 62 61 60 61 64
50 53 65 65 67 73 76 82 84 58 51 52 55 59 66 77 78 80 81 78 72 77 77 76 74 69 68 65 64 62 62 52 51 53 55 52 57 57 52 55 57 66 70
48 48 56 59 62 66 69 72 68 65 64 56 37 48 60 65 67 70 73 81 70 62 69 73 74 71 71 73 71 68 62 57 56 54 51 47 46 49 53 52 47 45 55
52 56 63 68 68 73 77 75 72 71 69 65 59 52 36 56 60 56 56 63 68 66 64 64 63 65 65 68 74 77 76 65 58 58 56 54 45 53 56 54 67 49 42
63 64 70 80 79 76 73 75 73 67 63 54 46 30 27 46 49 45 46 52 58 58 59 62 60 60 62 64 59 63 66 64 63 60 54 52 51 54 58 52 44 50 46
59 63 61 67 62 61 63 65 66 67 66 61 54 41 47 65 63 56 54 51 52 54 54 59 56 54 57 55 55 61 61 59 53 52 48 50 38 54 51 53 49 50 30
52 58 61 63 66 66 69 70 73 77 77 79 75 61 60 67 68 67 63 57 52 55 53 60 60 54 48 46 40 49 53 51 43 37 47 41 36 48 51 52 40 38 30
53 67 72 73 78 82 80 79 82 84 82 77 76 71 65 70 71 68 62 54 53 52 51 62 64 60 52 45 41 39 44 42 30 8 19 30 48 64 42 47 33 31 29
56 61 72 71 70 78 81 82 83 78 83 81 79 76 76 78 76 69 63 59 61 63 63 62 56 47 56 53 48 53 50 30 20 32 1 9 39 69 40 32 35 30 23
59 68 70 69 72 79 85 82 85 83 81 82 83 81 80 77 74 62 56 60 58 62 59 51 39 50 56 60 58 46 35 30 14 349 343 352 33 359 8 12 3 9 13
61 65 66 68 73 76 84 89 90 93 91 87 84 77 73 76 69 67 66 60 54 51 27 26 19 24 27 78 64 42 20 16 10 1 326 322 303 312 303 336 339 331 355